Theta_e
297 297 298 298 298 298 297 298 298 298 297 296 296 296 296 295 295 295 295 295 296 296 296 296 296 295 294 293 293 292 292 292 292 293 295 294 293 292 291 291 291 291 291 292 291 291 291 291 292 293 295 295 295 294 294 295 294 294 294 295 295 295 294 294 294 294 294 294 295
296 297 298 300 300 299 298 298 298 298 298 297 297 296 296 296 296 295 295 294 296 296 296 296 295 294 293 293 293 293 292 292 292 293 294 294 293 292 291 291 291 291 291 291 291 291 292 291 292 293 294 295 295 294 295 295 295 294 294 294 295 295 295 295 295 295 295 295 296
297 297 298 299 298 298 297 297 297 297 296 296 296 296 296 296 296 296 296 296 295 295 295 295 294 294 293 292 292 292 292 292 291 291 292 292 292 291 291 291 291 291 292 292 291 292 292 292 293 294 296 296 295 295 295 295 296 295 295 294 295 296 297 297 297 296 296 297 296
297 297 297 297 297 297 297 298 297 296 296 296 295 295 295 296 296 296 295 294 294 294 294 294 294 294 293 293 292 292 292 293 292 291 291 291 291 291 291 291 291 291 291 291 291 291 291 291 293 295 295 295 294 295 296 297 296 296 296 296 297 297 297 298 298 298 298 298 297
296 297 297 297 297 297 297 297 297 296 296 296 296 295 295 295 295 295 294 294 294 294 294 294 294 294 294 293 292 291 291 293 295 294 292 291 291 291 291 291 291 291 291 291 291 291 292 291 293 294 295 294 295 296 296 296 296 296 296 297 297 298 298 298 298 298 299 299 298
297 297 297 297 297 297 297 297 296 296 296 296 295 295 295 295 295 294 294 295 294 293 293 294 295 295 294 293 292 291 291 291 293 293 292 292 292 292 292 291 291 291 291 291 291 291 291 291 294 295 296 296 296 296 296 295 296 296 296 297 298 298 298 297 298 298 298 298 297
297 297 297 297 297 297 297 296 296 296 295 295 295 294 294 294 294 294 294 294 294 293 294 296 295 295 294 292 292 291 291 291 291 291 291 292 292 292 292 292 291 291 291 291 291 292 292 291 294 296 297 299 298 297 295 295 296 296 296 296 297 297 297 296 297 298 297 297 296
297 297 297 297 297 297 297 296 296 296 295 296 295 295 294 294 294 294 294 293 293 293 294 296 294 293 293 292 292 292 291 291 291 291 291 291 291 291 291 291 291 291 291 291 292 292 293 293 295 296 296 297 298 297 296 295 294 294 295 295 297 297 297 297 297 297 297 296 296
296 296 297 297 297 297 296 296 296 296 296 296 295 295 294 294 294 294 294 294 294 294 294 294 293 292 292 292 292 292 291 291 291 291 291 291 291 291 291 291 291 291 291 292 292 292 292 294 295 296 296 297 297 296 295 294 294 294 294 295 296 296 297 297 297 297 297 297 296
296 296 296 296 296 296 296 296 295 295 295 295 295 295 295 296 295 295 294 295 295 294 293 293 292 292 291 291 291 291 291 291 291 291 291 291 291 291 291 291 291 292 292 292 293 292 292 294 294 295 295 295 295 295 295 294 294 294 295 296 296 296 296 296 296 296 296 297 296
296 296 296 296 296 296 296 295 295 295 295 295 294 294 295 297 296 295 294 294 294 293 292 292 292 292 292 291 292 292 292 291 291 291 291 291 292 292 291 292 292 292 293 293 293 293 293 294 294 294 294 295 294 294 294 294 294 294 294 295 295 295 295 296 296 296 296 296 296
296 296 296 296 296 296 296 295 295 295 295 295 294 294 294 295 295 295 294 293 293 293 292 292 292 292 292 293 292 292 292 291 291 291 291 291 291 291 291 291 292 292 293 293 293 293 293 293 293 293 293 293 294 295 294 294 294 294 294 294 294 294 295 295 295 296 296 296 296
296 296 296 296 295 295 295 295 295 295 295 294 294 294 294 294 294 295 294 293 293 293 293 292 292 292 292 292 292 292 292 291 291 291 291 291 291 291 291 291 292 292 292 293 293 293 293 293 293 293 293 293 294 295 295 294 294 294 294 294 294 294 294 295 295 295 295 295 295
296 296 296 295 295 295 295 295 295 295 294 294 294 293 293 293 294 294 294 293 293 293 293 292 292 293 293 292 292 292 291 291 291 291 291 291 291 291 291 291 292 292 292 293 293 292 292 293 293 293 293 293 294 294 294 294 294 294 294 294 294 294 294 294 295 295 295 295 295
295 295 295 295 295 295 295 295 295 295 294 294 294 293 293 293 293 294 294 293 293 293 292 292 292 293 293 292 292 291 291 291 291 290 290 291 291 291 291 292 292 292 293 293 292 292 292 292 293 293 293 293 293 293 293 293 293 293 294 294 294 294 294 294 294 295 295 295 295
295 295 295 295 294 295 295 295 295 295 294 294 294 293 292 292 293 294 294 293 293 292 292 291 291 291 292 292 292 291 291 290 290 290 290 291 291 291 291 292 292 292 293 292 292 292 292 292 293 293 293 293 293 293 293 293 293 293 293 294 294 294 294 294 295 295 295 295 295
295 295 295 294 294 294 294 295 295 295 294 294 293 293 292 292 292 293 294 294 293 292 291 291 291 291 291 292 292 292 291 290 290 290 290 291 291 291 292 292 292 292 292 292 292 292 292 292 292 292 292 292 293 293 293 293 293 293 293 294 294 294 294 295 295 295 295 296 297
295 295 295 294 294 294 294 294 294 294 294 293 293 292 292 292 291 292 293 294 293 292 291 291 290 290 290 290 291 291 291 290 291 291 291 292 292 292 292 292 292 292 291 291 291 291 292 292 292 292 292 292 292 292 293 293 293 293 293 293 294 294 294 295 295 295 295 296 297
295 295 294 294 294 294 294 294 294 294 293 293 293 292 292 291 291 291 292 293 293 292 291 291 290 290 290 290 290 291 292 292 291 291 291 291 291 291 291 291 291 291 291 291 291 291 292 292 292 292 292 292 292 292 292 292 293 293 293 293 293 294 294 294 295 295 295 295 296
295 295 295 295 294 294 294 295 294 294 293 292 292 292 292 291 291 291 291 291 293 292 292 291 290 290 290 289 289 290 291 292 291 291 291 291 291 291 291 291 291 291 290 290 291 291 291 291 291 291 291 291 292 292 292 292 292 292 293 293 293 294 294 295 295 295 295 296 296
296 296 295 295 295 295 295 295 294 294 293 292 292 291 291 291 290 290 291 291 292 292 291 291 290 290 290 289 289 289 290 291 291 291 291 291 291 291 291 291 291 290 290 290 290 290 290 291 291 291 291 291 292 292 292 292 292 292 293 293 294 294 295 295 295 296 296 297 298
296 296 296 295 295 295 295 295 294 293 292 292 291 291 290 290 290 290 291 291 291 291 290 290 290 290 290 290 290 290 290 291 290 290 290 290 290 291 291 291 290 290 289 289 290 290 290 291 291 291 291 291 291 292 292 293 293 293 293 294 294 295 295 296 296 297 298 298 298
296 296 296 295 295 295 295 294 293 292 292 291 290 290 290 290 290 290 290 289 290 290 290 290 290 290 290 290 290 290 290 290 289 289 289 289 289 290 290 290 289 289 289 290 290 289 290 290 291 291 291 292 292 292 293 293 294 294 294 295 295 296 296 297 298 299 299 300 299
296 296 296 296 295 294 294 293 292 292 291 291 290 290 289 289 289 289 288 288 288 289 289 290 290 290 290 289 289 289 289 289 289 288 288 288 288 288 288 288 288 288 289 291 291 292 293 293 293 293 293 294 294 294 294 295 295 296 296 297 297 298 298 298 299 299 299 300 300
296 296 295 295 294 293 293 292 292 291 291 290 290 289 289 288 288 288 288 287 287 288 288 288 288 289 289 288 288 288 288 288 288 288 288 288 288 287 287 287 288 288 290 292 296 299 301 301 300 298 296 295 295 295 296 296 297 297 297 298 298 299 299 299 299 299 299 300 300
295 295 294 294 293 293 292 292 291 291 291 290 289 289 288 288 288 287 287 287 287 287 287 287 287 288 289 288 287 287 287 287 287 288 288 288 288 287 287 287 288 289 291 294 299 302 303 304 303 301 299 297 296 296 296 296 297 298 298 298 299 299 299 299 299 299 299 300 300
295 294 294 293 292 292 292 291 291 290 290 289 289 288 288 288 288 287 287 287 287 287 287 287 287 289 291 288 287 287 287 287 287 287 287 287 287 287 287 288 288 290 292 297 300 303 304 304 304 303 302 299 297 296 296 296 297 298 298 299 299 300 300 300 299 299 299 299 298
294 294 293 292 292 291 291 290 290 290 289 289 289 288 288 287 287 287 287 287 287 287 287 287 287 288 289 288 287 287 287 287 287 287 287 287 287 287 287 288 288 291 294 300 302 304 304 304 304 304 303 302 299 297 297 297 297 298 298 299 300 300 299 299 298 298 298 297 296
294 293 292 291 291 291 290 290 289 289 289 289 288 288 288 287 287 287 287 287 287 287 287 287 288 287 287 287 287 287 287 286 287 287 286 286 286 287 287 288 289 291 296 301 303 304 304 304 304 304 304 303 301 299 298 297 298 298 298 300 300 299 299 298 298 297 297 296 296
293 292 292 291 291 290 290 290 290 289 289 289 288 288 288 287 287 287 287 287 287 287 287 287 287 287 286 286 286 286 286 286 286 286 286 286 286 287 288 290 290 292 296 301 303 304 304 304 304 304 304 304 302 300 298 298 298 298 299 299 299 298 297 296 295 296 296 296 295
293 292 291 291 291 290 290 289 289 289 289 288 288 288 287 287 287 287 287 286 287 288 289 287 286 286 286 286 286 286 286 286 286 286 286 285 288 289 289 289 289 291 296 301 303 304 304 304 304 304 304 304 303 301 299 298 298 298 298 298 297 297 295 295 295 295 295 295 294
292 291 291 291 290 290 289 289 289 288 288 288 288 287 287 287 287 286 286 287 287 288 288 287 286 286 286 286 285 286 286 286 286 286 286 286 287 287 288 289 288 291 296 301 303 304 304 304 304 304 304 304 304 302 300 299 299 298 297 297 296 295 295 295 294 294 293 294 294
291 291 291 291 290 290 289 289 288 288 288 288 287 287 287 287 286 286 286 287 287 287 286 286 286 286 286 286 286 286 286 286 287 288 290 290 289 288 288 289 289 292 297 301 303 303 304 304 304 304 304 304 303 301 299 298 298 298 297 296 295 294 293 293 293 293 293 294 294
291 291 291 291 290 290 289 288 288 288 287 287 287 287 287 287 286 286 286 287 287 286 286 286 286 286 286 286 286 286 287 289 288 288 288 288 288 288 288 288 289 294 299 302 303 303 304 303 303 304 304 304 301 299 297 296 297 296 295 294 293 293 293 293 293 294 294 294 294
291 291 290 290 290 289 289 288 288 287 287 287 287 287 286 286 286 286 287 289 288 286 285 285 285 285 285 285 286 286 287 289 288 287 287 287 287 287 288 288 289 294 299 302 303 303 303 303 303 303 304 303 300 297 295 295 294 294 293 292 292 292 293 293 294 294 294 294 294
291 290 290 290 289 289 288 288 288 287 287 287 287 286 286 286 285 286 287 291 289 287 285 285 285 285 285 285 285 287 288 288 287 287 287 287 287 287 287 288 288 293 298 302 302 303 303 303 303 303 303 301 298 295 294 294 293 292 292 291 292 292 293 293 294 294 295 295 295
291 291 290 290 289 289 288 288 288 287 287 287 287 287 286 286 285 285 287 290 288 286 285 285 285 285 286 286 286 287 288 288 287 287 288 289 289 288 288 288 288 291 296 301 302 302 303 303 303 303 302 299 296 295 294 294 293 292 291 291 291 292 292 294 294 294 294 294 295
291 291 291 290 289 289 288 288 288 288 288 287 287 286 286 285 285 285 286 290 287 286 286 285 285 286 286 286 287 287 287 287 288 288 288 288 289 288 288 288 288 290 294 299 301 302 302 303 303 303 302 299 296 295 294 293 292 291 291 291 291 292 292 293 293 294 294 294 298
291 291 291 290 290 289 288 288 288 288 288 287 286 286 285 285 285 285 287 291 287 286 286 286 286 286 287 288 288 287 287 287 288 289 289 288 288 290 291 289 289 290 294 299 301 302 302 302 303 302 302 300 296 294 293 292 292 291 291 291 291 291 292 292 293 294 294 295 299
291 291 291 290 290 289 289 288 288 288 288 288 287 286 285 285 286 287 289 289 287 286 286 286 286 287 288 291 289 288 287 287 287 288 289 290 291 294 296 293 291 291 294 299 300 301 301 302 302 302 302 300 295 294 293 293 292 291 291 290 291 292 292 293 293 294 294 294 298
291 291 291 291 290 289 289 289 288 288 287 287 287 287 287 287 288 287 287 287 286 286 286 287 287 287 289 292 290 289 288 288 288 288 289 291 292 294 296 294 291 290 291 294 298 300 301 302 302 302 302 300 296 295 294 294 292 291 291 291 291 292 292 293 293 294 294 294 294
Wind_Speed
9 8 8 8 7 7 6 5 5 5 5 5 5 5 5 5 5 5 4 4 4 4 4 4 4 3 3 3 4 5 5 4 4 5 5 5 5 5 4 4 4 4 4 4 4 4 4 4 3 3 3 3 3 3 3 3 4 4 4 4 4 4 4 5 5 6 6 6 5
10 10 9 9 8 6 5 5 5 5 5 5 5 5 5 5 5 5 4 5 4 4 4 4 4 3 4 4 5 5 5 5 5 5 5 5 5 5 4 4 4 4 4 5 5 4 4 4 4 3 3 3 3 3 4 4 4 4 4 5 4 4 4 4 5 6 6 6 5
11 10 9 8 8 7 6 5 5 6 6 5 5 5 5 5 5 5 5 5 4 4 4 3 3 4 5 5 5 5 5 5 5 5 5 5 5 5 4 4 4 5 5 5 5 5 5 4 4 4 3 3 3 4 4 4 4 4 4 5 4 4 4 4 5 5 5 4 5
11 11 10 9 9 9 8 7 7 7 6 5 5 5 5 5 4 4 4 4 4 4 4 4 4 4 5 5 5 5 5 5 5 5 5 5 5 5 5 4 5 5 5 5 6 6 5 5 4 3 3 4 4 4 4 4 4 4 4 4 4 4 4 4 4 4 4 4 5
12 11 11 10 11 10 9 8 8 7 6 5 5 5 5 4 4 4 4 4 4 4 5 5 5 4 4 5 5 5 5 5 5 5 5 5 5 5 5 4 5 5 6 6 6 6 6 5 4 3 4 4 4 4 5 5 5 4 4 4 4 4 4 4 4 4 4 4 4
12 12 11 10 11 10 8 7 8 8 6 5 6 6 5 5 4 4 5 5 5 5 6 6 5 4 4 4 5 5 5 5 5 5 5 5 5 5 5 5 6 6 5 5 6 6 5 4 3 3 4 4 4 5 5 6 5 5 4 4 4 4 4 4 4 4 4 5 5
13 12 11 10 10 10 8 7 7 7 6 6 7 7 7 6 6 6 6 6 5 5 5 5 5 5 5 5 5 5 5 5 5 5 5 5 5 5 5 5 6 6 6 6 6 6 5 4 3 4 4 4 4 5 5 6 5 5 5 5 4 4 4 5 4 4 5 6 7
12 12 12 11 11 10 9 8 7 7 7 6 8 9 9 8 8 8 7 5 5 5 5 5 6 6 6 6 6 6 6 6 5 5 5 5 5 5 6 5 5 6 6 6 6 6 5 4 4 4 4 4 4 4 5 6 5 5 5 6 5 4 4 5 4 4 5 7 8
10 11 11 10 10 10 10 9 8 8 8 8 9 9 10 9 9 8 7 6 6 5 5 5 6 6 7 7 7 6 6 6 6 6 5 5 5 6 6 5 5 6 6 6 6 6 6 4 4 4 4 4 4 5 5 6 6 6 6 6 5 5 5 5 5 5 6 7 8
11 11 11 10 10 10 9 9 9 9 9 9 9 9 9 10 9 8 7 6 5 5 5 5 6 6 7 7 7 7 7 6 6 6 5 5 6 6 6 5 6 6 6 5 5 6 5 4 4 5 5 4 5 6 6 6 6 7 7 5 5 6 6 6 6 7 7 8 9
12 12 11 10 10 10 9 9 8 8 9 9 9 9 9 9 8 8 6 5 5 5 6 6 7 7 7 7 7 7 7 6 6 5 5 5 6 6 6 6 6 6 6 6 5 5 4 4 5 6 6 5 6 6 6 7 7 7 7 6 6 7 7 7 7 7 7 8 9
13 12 11 11 11 10 9 9 8 8 8 9 9 9 8 8 8 7 6 6 6 6 7 6 7 8 7 7 7 7 6 6 5 5 5 6 6 6 6 6 6 7 7 7 5 4 4 5 5 6 7 7 6 6 6 7 7 7 7 7 7 7 8 9 9 8 7 8 9
12 12 11 11 11 10 10 9 8 8 8 9 9 8 8 8 8 7 7 7 7 7 6 6 7 7 7 7 7 6 6 6 6 5 5 6 6 6 6 6 6 7 7 7 5 5 5 5 6 7 7 8 7 6 7 7 7 7 8 8 8 8 9 10 9 9 8 8 9
12 12 12 11 11 11 10 10 8 8 8 9 9 8 8 7 7 7 7 8 8 7 6 6 6 6 7 7 7 6 6 6 6 5 6 6 6 6 6 6 7 7 7 6 6 5 6 6 7 7 8 8 8 8 7 7 7 7 8 8 8 9 9 10 10 9 9 9 10
12 12 12 12 11 11 10 10 8 8 8 9 9 8 7 6 7 7 7 7 7 7 6 6 6 6 6 7 6 6 6 5 5 5 5 6 6 6 6 7 7 7 7 7 6 6 6 7 7 7 8 8 8 8 8 7 7 7 8 8 9 9 9 10 10 9 9 10 10
13 12 12 12 12 11 10 10 8 8 8 9 8 8 7 6 6 6 7 7 7 6 6 6 6 6 5 6 6 5 5 5 5 5 5 6 6 7 7 7 7 8 7 7 6 6 6 7 7 7 8 8 8 8 8 8 8 8 8 8 9 9 10 10 10 10 10 10 11
13 13 12 12 12 12 11 10 8 8 8 9 8 8 7 6 6 6 7 8 6 6 6 7 6 5 5 5 5 5 5 5 5 5 6 7 7 7 8 8 8 8 7 7 7 7 7 7 7 7 7 8 8 8 8 8 8 8 8 9 9 9 10 10 10 10 10 11 11
13 13 12 12 13 13 12 11 10 9 9 9 9 8 7 7 6 6 7 7 7 7 7 7 6 5 5 5 4 4 5 5 6 6 7 7 8 8 8 8 8 7 7 6 6 7 7 7 7 7 7 7 7 7 8 8 8 8 9 9 9 9 10 10 10 10 10 10 11
14 13 13 13 13 13 13 12 11 10 10 9 8 8 7 7 7 7 7 7 7 8 8 8 6 5 5 5 5 5 5 5 6 7 7 7 7 7 8 8 7 7 6 6 6 7 7 7 7 7 7 7 7 7 7 8 8 8 8 9 9 9 10 10 10 10 10 10 11
15 14 14 14 13 13 13 12 12 10 9 8 8 8 8 8 8 8 8 8 8 8 8 8 7 6 5 5 5 5 5 5 6 7 7 7 7 7 7 7 7 6 6 6 6 7 7 7 7 7 7 7 7 8 8 8 8 8 9 8 9 9 10 10 10 10 10 10 11
15 14 14 13 13 13 12 12 11 10 9 8 9 9 9 8 8 8 9 9 8 8 7 7 7 7 6 6 6 6 6 5 6 7 7 7 7 7 7 7 6 6 6 6 6 7 7 7 7 7 7 7 8 8 8 8 8 9 9 8 9 9 10 10 10 10 11 11 11
15 14 13 13 13 12 12 11 10 9 9 9 9 8 8 8 8 9 8 8 7 7 6 7 8 8 8 7 7 7 6 5 5 6 6 6 6 6 6 5 5 5 6 6 6 7 7 7 7 7 7 7 8 9 9 9 9 9 9 9 9 10 10 10 10 10 11 11 11
14 13 12 12 12 12 11 10 9 9 9 9 8 8 8 8 8 8 7 6 6 6 6 6 7 7 8 8 7 6 6 5 4 4 5 5 5 6 5 5 5 5 6 6 6 6 6 6 7 7 8 8 8 9 9 9 9 8 9 9 10 10 10 10 10 10 10 10 10
13 12 11 10 11 11 11 10 9 9 9 9 9 9 8 8 8 7 6 6 6 6 6 6 6 6 7 6 6 6 5 5 5 5 5 5 5 5 5 4 5 5 6 6 6 6 7 6 6 7 8 8 8 8 8 8 8 8 9 9 10 10 9 9 9 9 9 9 9
13 12 11 10 10 10 10 10 10 10 10 9 9 9 8 8 7 7 6 6 7 7 7 6 6 5 5 5 4 4 4 5 5 6 6 6 5 5 5 4 5 5 5 6 9 11 12 10 8 7 6 6 7 7 7 7 8 8 8 8 9 9 9 8 8 8 8 9 9
12 12 12 11 11 11 11 11 11 10 10 9 8 8 7 7 7 6 7 7 7 7 7 6 5 5 4 4 3 3 4 4 5 6 6 6 6 5 5 4 4 4 5 7 11 13 14 15 14 12 8 6 6 6 6 6 7 7 8 8 8 8 8 8 7 7 8 8 8
12 12 12 11 11 11 11 11 11 10 9 9 9 9 8 8 7 7 7 7 6 5 5 5 5 5 4 3 3 4 4 4 5 6 6 6 6 6 5 5 5 4 5 9 12 14 15 16 17 16 13 7 6 6 6 6 6 7 7 7 7 7 7 7 7 8 8 8 8
13 12 12 11 11 11 11 10 10 10 10 10 10 9 8 8 8 7 7 6 5 4 4 4 4 3 3 3 4 5 5 5 5 5 6 6 6 6 6 5 5 6 7 11 13 14 15 16 17 17 16 12 7 6 5 6 6 6 6 6 6 6 6 6 6 7 7 7 7
13 13 12 12 12 12 11 11 11 11 11 10 10 9 8 8 8 7 7 6 5 4 4 3 3 3 3 3 4 5 5 5 5 4 4 4 5 5 6 6 6 8 10 13 14 15 16 16 17 17 17 16 9 6 5 5 5 5 5 5 5 5 5 5 5 6 6 7 7
13 13 13 13 12 12 11 11 12 11 11 9 9 9 8 8 8 8 7 6 6 5 4 3 3 3 3 4 4 4 4 4 4 4 4 5 5 6 7 7 7 8 10 13 14 15 16 16 17 17 18 17 12 7 5 5 4 4 5 4 5 5 5 5 5 6 6 6 7
13 13 13 13 13 12 12 12 11 11 10 9 9 9 9 8 8 8 7 7 5 4 4 3 4 4 4 4 4 4 4 4 3 4 4 6 7 7 8 7 7 8 10 13 14 15 16 16 17 17 17 17 12 8 5 5 4 4 4 4 4 5 5 5 5 6 7 7 7
14 14 13 13 13 12 12 11 11 10 10 10 9 9 9 9 8 6 6 5 5 4 3 4 4 4 3 3 3 4 4 4 4 5 5 7 7 7 7 7 7 8 10 13 14 15 16 16 17 17 17 17 12 8 5 4 4 4 4 4 4 5 5 5 5 6 7 8 7
14 14 14 14 13 12 12 11 10 10 10 10 10 9 9 8 6 5 4 4 4 4 4 5 5 5 5 4 4 4 4 5 6 6 7 7 7 7 6 6 6 7 10 13 14 15 16 16 16 17 17 17 12 7 4 4 3 3 3 3 4 4 5 6 6 6 7 8 7
14 14 14 14 13 12 12 11 10 10 10 10 9 9 9 7 6 5 4 4 4 4 4 5 5 5 5 5 5 4 5 5 6 6 7 7 6 5 5 5 5 7 10 13 14 15 16 16 16 17 17 16 10 6 4 3 3 3 3 3 4 5 5 6 6 7 7 7 7
15 14 14 13 13 12 12 11 10 10 10 10 9 8 8 6 6 6 5 5 4 3 3 3 3 3 3 3 4 4 5 6 6 6 6 6 5 4 5 5 6 8 12 14 15 15 15 16 16 16 16 14 8 5 3 3 3 3 3 4 5 5 6 6 6 6 7 7 7
15 15 15 14 13 12 12 12 11 11 10 10 9 8 7 6 5 5 5 5 4 3 3 2 2 2 3 3 3 4 5 6 6 6 6 5 4 4 5 5 6 8 12 14 15 15 15 15 15 16 15 11 6 4 3 3 3 3 4 4 5 6 6 6 6 6 6 6 7
15 15 15 14 13 13 12 12 11 11 11 10 9 8 7 6 5 4 4 5 4 4 3 3 3 3 4 4 4 5 6 6 6 6 6 5 5 5 5 5 6 8 10 13 14 14 14 14 15 15 13 8 5 4 3 3 2 3 3 4 5 5 6 5 6 6 6 7 8
15 15 15 15 14 13 13 12 12 12 11 10 8 7 7 6 5 4 4 5 4 4 4 4 4 4 5 5 6 6 6 5 5 5 5 6 6 6 5 6 6 7 9 11 13 13 14 14 14 14 13 8 5 4 3 2 2 3 3 4 4 4 5 5 5 5 6 7 10
15 15 15 15 15 14 13 12 12 12 11 9 7 6 5 5 4 4 4 5 5 5 5 5 4 5 5 6 6 5 5 5 5 5 6 6 6 7 6 6 6 6 8 10 12 12 13 13 14 15 13 9 5 3 3 2 2 3 3 3 4 4 5 5 5 5 6 8 12
15 15 15 15 15 14 13 13 12 11 10 8 7 7 6 5 5 4 4 4 4 5 5 5 5 6 6 6 5 5 4 4 4 5 6 6 7 8 8 6 5 6 7 9 11 12 12 13 14 15 14 8 5 3 2 2 2 3 3 3 4 4 4 5 5 5 6 7 10
14 14 14 14 14 14 13 13 11 10 8 8 8 7 6 5 4 4 4 4 4 4 5 5 5 5 5 5 4 4 4 4 4 5 5 6 7 7 7 5 5 5 6 7 9 11 12 13 14 15 13 8 5 3 2 2 2 3 4 4 4 4 4 5 5 5 5 6 6
Wind_Direction
178 179 180 179 181 181 181 183 179 175 171 171 174 176 178 178 183 186 186 181 184 189 194 195 195 193 188 181 181 185 189 193 193 197 200 204 211 215 216 216 213 215 220 229 231 231 229 224 223 228 232 230 229 230 231 229 227 230 235 240 243 244 244 245 248 249 250 249 250
181 181 181 181 180 179 177 178 178 176 175 176 176 177 177 179 183 185 186 186 189 191 191 194 193 190 188 190 186 187 190 195 197 200 205 210 215 217 217 217 217 219 222 227 229 231 230 224 221 225 233 234 233 235 237 235 229 232 238 244 245 247 247 248 249 248 248 248 249
181 180 180 179 178 176 176 178 180 179 178 179 178 176 178 181 183 185 187 190 189 187 186 189 190 191 191 193 191 190 192 195 197 201 208 215 218 220 219 220 224 226 228 228 228 230 230 223 220 225 234 239 236 240 243 245 236 236 239 244 245 247 249 252 250 249 248 250 247
181 180 180 181 178 178 179 181 181 180 180 178 174 175 178 183 184 185 184 182 181 184 189 191 192 192 192 192 194 196 198 199 198 202 210 219 222 222 221 220 226 231 232 231 230 231 231 225 224 229 236 239 240 243 246 251 246 244 244 245 247 248 250 255 255 254 253 254 249
183 184 183 183 182 181 182 180 179 179 178 173 171 175 181 185 184 180 177 175 185 192 195 192 190 190 190 189 192 197 202 205 205 207 213 222 226 227 225 222 227 231 234 232 231 231 231 225 228 233 237 237 240 243 246 247 248 249 251 254 252 250 250 253 256 256 256 258 256
185 185 185 184 182 182 181 179 177 176 174 168 171 176 183 188 185 181 181 186 193 196 193 189 188 188 187 187 192 198 203 207 208 209 213 223 229 231 231 230 231 232 234 234 233 232 230 223 231 238 239 237 240 243 244 243 245 248 252 257 255 253 252 253 256 258 259 259 260
184 184 184 184 182 181 181 178 175 171 168 166 174 181 186 188 186 185 187 190 192 192 190 188 188 187 187 188 195 201 206 209 210 210 213 220 229 234 235 236 236 236 237 236 236 235 230 220 229 240 245 244 248 247 245 241 242 245 250 255 256 255 253 253 256 259 259 258 258
182 183 183 183 181 181 179 176 171 169 170 176 183 187 188 187 187 187 189 189 191 191 189 187 187 187 188 189 195 201 205 209 212 213 214 217 226 233 237 239 241 242 241 238 237 236 233 224 230 238 245 248 253 253 251 246 245 248 253 256 260 259 257 256 256 256 257 258 258
182 184 184 182 181 181 179 175 173 173 177 184 189 190 189 186 186 186 187 192 195 191 186 185 187 187 188 189 196 201 205 207 210 213 215 215 222 231 237 241 242 245 245 242 238 235 234 232 236 239 242 246 251 255 256 254 254 255 258 261 263 263 262 261 258 258 258 259 260
182 183 182 181 183 181 179 176 176 178 182 187 190 190 189 189 187 187 190 194 191 186 184 186 185 185 188 193 199 203 206 207 208 212 216 218 221 227 233 238 239 244 247 247 240 235 231 232 238 243 245 247 251 255 259 259 259 258 260 263 264 265 265 265 263 262 262 263 263
182 181 181 181 182 180 177 176 180 183 186 190 190 190 190 191 190 191 191 187 181 184 188 189 184 185 190 197 203 205 206 205 206 210 216 222 224 227 229 234 236 240 245 249 244 237 231 232 239 245 249 251 252 255 258 258 257 257 259 262 264 266 268 268 267 266 265 264 264
181 180 180 181 179 177 176 178 182 186 190 192 191 191 191 193 192 189 186 178 181 189 193 190 185 187 192 200 204 205 204 202 204 209 216 223 227 229 231 234 236 240 244 248 246 240 236 236 241 247 252 256 256 256 257 257 257 258 260 263 264 265 267 268 267 266 265 264 265
180 179 179 180 177 176 177 180 184 187 190 193 192 192 193 195 191 186 180 179 186 192 195 191 188 189 194 200 202 202 201 202 203 208 215 224 228 231 234 237 238 240 243 247 245 241 238 239 242 247 252 256 258 258 257 257 257 259 262 265 266 266 266 266 266 266 266 266 266
178 179 179 178 176 177 179 183 185 188 191 194 194 193 192 193 189 184 181 183 190 193 194 192 191 194 197 200 200 200 200 201 203 208 216 225 229 232 235 239 239 240 242 245 243 239 237 239 242 245 249 254 257 259 259 258 258 259 261 263 264 265 265 266 267 267 268 267 266
179 180 179 177 177 178 181 184 187 188 190 193 194 193 190 189 187 184 183 186 192 194 193 190 196 200 201 199 198 198 199 200 202 209 217 227 231 233 235 239 240 241 242 244 244 240 237 238 241 244 247 252 256 259 260 259 258 258 259 260 261 263 265 266 267 267 267 266 267
181 180 179 177 179 181 183 185 187 188 189 193 192 190 188 188 185 183 183 188 192 193 192 192 197 200 201 199 197 196 197 200 203 210 218 228 233 235 236 238 240 241 242 243 245 244 241 239 241 242 245 249 254 257 259 260 259 259 259 259 260 261 263 264 265 265 265 264 265
182 181 180 179 181 183 185 186 187 187 189 191 189 188 187 185 182 182 185 188 189 191 194 199 200 198 198 201 197 194 194 200 207 212 219 227 231 234 236 237 239 239 239 240 243 246 248 247 245 244 244 247 251 254 257 258 259 259 259 259 259 260 261 262 263 264 264 264 265
183 182 181 182 184 185 186 186 187 187 187 188 186 186 185 183 181 183 187 188 187 189 195 203 202 200 197 200 200 195 194 200 209 216 220 225 228 231 234 237 239 239 239 238 241 245 249 252 252 250 249 249 251 253 254 255 257 258 258 259 260 260 261 261 261 262 262 263 264
184 183 183 184 186 187 187 187 187 187 187 186 184 183 183 182 180 182 185 189 188 190 194 201 202 201 200 201 203 201 201 203 211 217 223 226 228 231 234 238 241 241 241 240 242 245 249 253 254 254 253 253 254 255 255 255 256 257 258 259 259 260 260 260 260 260 259 259 261
185 185 185 186 186 187 187 187 188 187 186 184 181 181 182 182 180 181 184 191 192 192 193 197 200 202 204 204 206 209 210 209 211 218 224 228 229 232 235 238 242 244 244 243 245 247 249 252 253 254 254 254 255 257 257 257 258 258 258 259 259 259 259 259 259 259 258 258 259
187 186 186 185 185 186 187 188 187 185 183 181 180 181 181 181 181 184 188 191 190 189 191 196 199 201 204 205 208 214 217 216 213 218 224 229 231 233 235 237 241 245 247 247 248 249 250 251 252 252 253 253 254 256 256 258 259 259 259 260 260 259 259 259 259 259 258 258 258
188 186 185 184 185 185 186 185 183 182 180 180 180 180 181 181 184 188 190 187 182 183 189 196 199 202 204 205 209 214 219 220 216 218 223 228 233 236 237 236 239 244 249 250 250 250 250 252 252 251 251 252 252 253 254 255 257 259 260 261 261 261 260 260 260 259 258 258 258
186 184 182 182 183 184 184 181 179 178 178 179 180 181 181 183 186 187 186 180 178 182 190 197 200 203 205 206 208 213 219 224 225 226 227 228 235 239 241 238 237 241 245 249 248 248 249 252 252 250 248 247 248 250 251 252 255 257 260 261 261 262 261 261 260 259 258 258 257
182 180 178 179 180 181 180 177 175 176 179 181 181 182 182 184 184 182 179 177 180 186 191 197 200 203 204 206 207 210 215 223 233 238 240 236 236 239 242 241 237 238 241 245 245 244 244 245 244 243 242 241 243 245 247 248 251 254 258 260 262 263 263 262 260 260 259 259 258
178 176 175 176 177 177 176 174 176 179 181 182 181 181 181 182 180 177 176 179 186 191 194 197 200 201 202 203 204 206 209 217 227 237 245 248 244 242 240 239 237 237 239 243 249 254 257 261 262 256 248 245 246 248 250 251 253 255 258 261 264 266 266 266 263 261 260 259 258
174 174 174 174 174 175 176 176 178 180 181 180 178 179 180 180 176 174 176 183 190 195 196 197 200 200 199 196 197 201 208 214 220 228 237 245 249 249 245 239 237 237 240 245 253 261 269 278 284 286 283 270 265 263 263 262 260 261 262 263 265 266 267 269 267 264 262 261 261
173 174 175 173 172 175 177 179 178 178 178 176 177 179 180 177 173 173 177 185 190 193 194 195 200 201 197 188 192 202 211 217 218 221 226 233 241 246 249 247 242 239 242 249 259 268 277 287 293 296 296 290 283 277 273 270 267 266 266 266 265 265 265 267 269 270 270 270 269
173 174 173 171 173 176 178 176 175 176 177 177 178 178 176 170 169 173 179 185 186 187 189 196 196 190 182 180 197 207 214 217 218 219 221 224 231 238 244 248 247 246 250 255 265 275 284 292 297 299 300 299 292 283 276 273 271 270 269 268 266 265 264 266 269 271 273 275 275
174 172 171 171 175 177 176 174 176 178 178 177 176 173 169 166 169 174 178 181 182 185 189 195 183 171 171 190 205 211 215 218 217 215 215 219 229 235 240 245 247 251 256 262 271 280 288 295 299 301 302 303 298 290 282 277 275 273 271 269 267 266 266 267 269 271 273 275 275
172 171 171 174 176 176 176 177 178 177 176 173 170 167 165 166 170 175 178 181 186 189 188 177 165 169 184 200 205 210 215 219 214 208 207 214 226 234 239 241 242 248 257 264 274 282 289 295 298 301 302 304 300 295 287 281 277 276 275 274 270 269 268 268 271 272 274 276 276
171 171 172 174 175 176 177 178 176 173 170 167 165 164 165 168 174 179 181 183 186 185 175 155 160 177 193 200 199 205 213 218 213 209 209 214 226 234 238 241 241 248 258 267 275 282 289 294 298 301 303 305 303 299 292 285 281 278 276 273 271 269 269 270 270 271 273 274 276
171 171 172 174 176 177 176 175 172 169 165 163 163 165 169 173 177 180 181 179 176 169 161 156 170 186 199 202 202 207 213 216 217 216 215 216 224 231 238 244 245 252 260 268 275 282 289 295 299 302 304 306 304 302 297 291 285 278 272 267 266 265 266 268 271 272 273 273 274
170 171 172 174 176 175 173 170 168 165 163 163 165 168 171 175 175 174 173 172 167 166 168 174 184 194 201 203 204 209 216 218 221 222 223 222 224 230 239 247 250 256 263 270 277 283 290 296 300 302 305 307 306 307 305 295 287 278 272 268 268 268 269 270 272 274 275 275 275
170 171 173 174 174 172 169 167 165 163 162 163 167 170 172 172 171 172 174 174 169 168 172 178 185 192 195 194 195 203 212 219 221 223 224 224 224 230 240 248 253 259 265 272 279 285 292 297 300 303 305 308 308 308 302 291 284 279 277 277 277 277 277 276 276 276 275 275 275
170 171 172 173 171 169 166 164 162 161 161 164 169 171 172 171 173 176 178 174 164 160 164 173 176 181 184 187 189 199 209 219 222 224 225 223 222 231 242 249 254 261 267 274 281 287 293 297 300 303 305 308 308 303 291 279 274 272 273 276 280 281 281 281 279 278 276 275 275
170 171 171 171 169 166 164 162 161 161 163 166 170 172 174 175 177 178 175 165 154 151 156 164 163 170 182 195 201 206 210 216 222 225 226 222 220 230 243 250 256 264 270 276 283 288 293 297 300 303 305 308 304 294 278 264 260 263 267 273 278 279 279 279 278 277 277 277 276
171 170 169 168 166 165 163 161 160 162 166 170 172 174 175 176 178 175 165 154 149 154 164 166 169 181 193 202 209 212 213 212 216 224 230 230 227 231 241 251 257 264 270 277 283 288 292 296 299 303 305 305 299 288 277 264 260 263 268 273 275 275 274 275 275 276 276 277 278
171 169 167 166 165 164 162 161 162 165 169 173 174 173 173 172 172 169 163 157 156 164 173 174 182 192 200 203 210 214 217 215 214 220 229 236 233 234 239 249 257 263 268 274 281 287 292 296 300 303 305 302 297 289 280 269 266 268 270 273 274 273 273 273 274 276 277 277 281
170 168 166 164 163 162 161 161 165 168 171 172 171 169 168 168 170 170 167 163 161 166 173 179 190 198 203 203 207 215 222 224 219 221 226 235 237 238 240 245 253 259 265 271 280 286 292 296 300 303 305 303 297 287 275 264 266 269 272 273 275 277 277 277 277 279 279 277 283
168 167 165 163 162 161 161 163 167 169 169 168 168 168 170 171 170 166 161 158 160 166 174 183 194 200 203 200 203 212 226 237 230 227 227 233 241 247 249 248 251 257 265 273 281 287 291 296 300 303 305 303 294 277 262 257 265 273 276 277 278 281 283 282 281 281 279 277 281
166 164 163 162 160 160 160 163 166 167 167 166 168 170 170 167 158 152 151 154 164 171 179 187 197 201 203 200 198 208 224 244 244 239 234 235 245 253 256 255 256 261 268 275 280 284 289 294 300 304 306 303 293 274 258 259 273 281 283 282 282 283 285 286 285 282 279 276 276